• In Czech Republic
  • List of Countries
  • For 7 days
  • Water Temperature
  • Satellite Maps
  • Weather Map
  • Weather Widgets
  • user-avatar
    Login

    Hourly Weather Narman

    Today, 25 September, Tuesday

    Time Temperature Precipitation Wind Pressure Humidity
    00:00 +13°C° 0 mm 1 mps 617 mmHg 49%
    01:00 +13°C° 0 mm 1 mps 617 mmHg 49%
    02:00 +12°C° 0 mm 1 mps 616 mmHg 49%
    03:00 +12°C° 0 mm 1 mps 616 mmHg 51%
    04:00 +12°C° 0 mm 1 mps 616 mmHg 52%
    05:00 +12°C° 0 mm 1 mps 616 mmHg 52%
    06:00 +11°C° 0 mm 1 mps 616 mmHg 53%
    07:00 +14°C° 0 mm 1 mps 617 mmHg 45%
    08:00 +18°C° 0 mm 1 mps 618 mmHg 37%
    09:00 +21°C° 0 mm 1 mps 619 mmHg 29%
    10:00 +21°C° 0 mm 2 mps 619 mmHg 27%
    11:00 +23°C° 0 mm 2 mps 620 mmHg 24%
    12:00 +25°C° 0 mm 2 mps 620 mmHg 22%
    13:00 +25°C° 0 mm 2 mps 620 mmHg 22%
    14:00 +25°C° 0 mm 2 mps 620 mmHg 22%
    15:00 +26°C° 0 mm 2 mps 620 mmHg 22%
    16:00 +24°C° 0 mm 2 mps 619 mmHg 28%
    17:00 +21°C° 0 mm 2 mps 619 mmHg 34%
    18:00 +19°C° 0 mm 2 mps 618 mmHg 40%
    19:00 +18°C° 0.1 mm 2 mps 618 mmHg 48%
    20:00 +17°C° 0.1 mm 2 mps 618 mmHg 56%
    21:00 +15°C° 0.1 mm 2 mps 618 mmHg 64%
    22:00 +15°C° 0.2 mm 2 mps 618 mmHg 69%
    23:00 +14°C° 0.2 mm 2 mps 617 mmHg 75%

    Tomorrow, 26 September, Wednesday

    Time Temperature Precipitation Wind Pressure Humidity
    00:00 +13°C° 0.2 mm 2 mps 617 mmHg 81%
    01:00 +13°C° 0.1 mm 2 mps 617 mmHg 84%
    02:00 +12°C° 0.1 mm 2 mps 617 mmHg 87%
    03:00 +12°C° 0.1 mm 2 mps 617 mmHg 90%
    04:00 +10°C° 0.2 mm 2 mps 617 mmHg 91%
    05:00 +10°C° 0.2 mm 2 mps 617 mmHg 92%
    06:00 +10°C° 0.2 mm 2 mps 617 mmHg 93%
    07:00 +12°C° 0.1 mm 2 mps 617 mmHg 86%
    08:00 +13°C° 0.1 mm 2 mps 618 mmHg 79%
    09:00 +14°C° 0.1 mm 2 mps 619 mmHg 72%
    10:00 +15°C° 0.1 mm 2 mps 619 mmHg 68%
    11:00 +16°C° 0.1 mm 3 mps 619 mmHg 63%
    12:00 +17°C° 0.1 mm 3 mps 619 mmHg 58%
    13:00 +17°C° 0.1 mm 3 mps 619 mmHg 57%
    14:00 +17°C° 0.1 mm 3 mps 619 mmHg 56%
    15:00 +17°C° 0.1 mm 3 mps 619 mmHg 54%
    16:00 +16°C° 0.1 mm 3 mps 618 mmHg 59%
    17:00 +14°C° 0.1 mm 3 mps 618 mmHg 64%
    18:00 +13°C° 0.1 mm 3 mps 618 mmHg 69%
    19:00 +12°C° 0 mm 3 mps 618 mmHg 74%
    20:00 +11°C° 0 mm 3 mps 618 mmHg 78%
    21:00 +10°C° 0 mm 2 mps 618 mmHg 83%
    22:00 +10°C° 0 mm 2 mps 618 mmHg 84%
    23:00 +9°C° 0 mm 2 mps 618 mmHg 85%

    Day after tomorrow, 27 September, Thursday

    Time Temperature Precipitation Wind Pressure Humidity
    00:00 +9°C° 0 mm 2 mps 618 mmHg 87%
    01:00 +9°C° 0 mm 2 mps 618 mmHg 87%
    02:00 +9°C° 0 mm 2 mps 618 mmHg 87%
    03:00 +8°C° 0 mm 2 mps 618 mmHg 87%
    04:00 +8°C° 0 mm 2 mps 618 mmHg 87%
    05:00 +8°C° 0 mm 2 mps 618 mmHg 88%
    06:00 +8°C° 0 mm 2 mps 618 mmHg 88%
    07:00 +9°C° 0 mm 2 mps 619 mmHg 81%
    08:00 +12°C° 0 mm 2 mps 620 mmHg 74%
    09:00 +13°C° 0 mm 2 mps 620 mmHg 67%
    10:00 +14°C° 0 mm 2 mps 621 mmHg 61%
    11:00 +16°C° 0 mm 2 mps 621 mmHg 55%
    12:00 +17°C° 0 mm 2 mps 621 mmHg 48%
    13:00 +18°C° 0 mm 2 mps 621 mmHg 46%
    14:00 +18°C° 0 mm 2 mps 621 mmHg 44%
    15:00 +19°C° 0 mm 2 mps 621 mmHg 42%
    16:00 +18°C° 0 mm 3 mps 621 mmHg 47%
    17:00 +17°C° 0 mm 3 mps 620 mmHg 53%
    18:00 +14°C° 0 mm 3 mps 620 mmHg 58%
    19:00 +13°C° 0 mm 3 mps 620 mmHg 64%
    20:00 +13°C° 0 mm 2 mps 620 mmHg 70%
    21:00 +12°C° 0 mm 2 mps 620 mmHg 77%
    22:00 +10°C° 0 mm 2 mps 620 mmHg 80%
    23:00 +10°C° 0 mm 2 mps 619 mmHg 84%

    28 September, Friday

    Time Temperature Precipitation Wind Pressure Humidity
    00:00 +10°C° 0 mm 1 mps 619 mmHg 87%
    01:00 +10°C° 0 mm 1 mps 619 mmHg 89%
    02:00 +9°C° 0 mm 1 mps 619 mmHg 90%
    03:00 +9°C° 0 mm 1 mps 619 mmHg 92%
    04:00 +9°C° 0 mm 1 mps 618 mmHg 92%
    05:00 +8°C° 0 mm 1 mps 618 mmHg 92%
    06:00 +8°C° 0 mm 1 mps 618 mmHg 92%
    07:00 +10°C° 0 mm 1 mps 619 mmHg 83%
    08:00 +12°C° 0 mm 1 mps 620 mmHg 73%
    09:00 +14°C° 0 mm 1 mps 620 mmHg 64%
    10:00 +16°C° 0 mm 1 mps 621 mmHg 55%
    11:00 +19°C° 0 mm 1 mps 621 mmHg 47%
    12:00 +21°C° 0 mm 1 mps 621 mmHg 39%
    13:00 +21°C° 0 mm 1 mps 621 mmHg 36%
    14:00 +22°C° 0 mm 1 mps 621 mmHg 34%
    15:00 +23°C° 0 mm 2 mps 621 mmHg 32%
    16:00 +20°C° 0 mm 2 mps 620 mmHg 36%
    17:00 +19°C° 0 mm 2 mps 619 mmHg 41%
    18:00 +17°C° 0 mm 2 mps 619 mmHg 45%
    19:00 +16°C° 0.1 mm 1 mps 619 mmHg 51%
    20:00 +15°C° 0.1 mm 1 mps 618 mmHg 56%
    21:00 +14°C° 0.1 mm 1 mps 618 mmHg 62%
    22:00 +13°C° 0 mm 1 mps 618 mmHg 66%
    23:00 +13°C° 0 mm 1 mps 618 mmHg 69%

    29 September, Saturday

    Time Temperature Precipitation Wind Pressure Humidity
    00:00 +12°C° 0 mm 1 mps 617 mmHg 73%
    01:00 +11°C° 0 mm 1 mps 617 mmHg 74%
    02:00 +11°C° 0 mm 1 mps 617 mmHg 75%
    03:00 +9°C° 0 mm 0 mps 616 mmHg 76%
    04:00 +10°C° 0 mm 1 mps 616 mmHg 76%
    05:00 +10°C° 0 mm 1 mps 616 mmHg 77%
    06:00 +10°C° 0 mm 1 mps 616 mmHg 77%
    07:00 +12°C° 0 mm 1 mps 617 mmHg 65%
    08:00 +15°C° 0 mm 1 mps 618 mmHg 54%
    09:00 +18°C° 0 mm 1 mps 619 mmHg 42%
    10:00 +20°C° 0 mm 1 mps 619 mmHg 37%
    11:00 +22°C° 0 mm 1 mps 619 mmHg 32%
    12:00 +23°C° 0 mm 2 mps 620 mmHg 27%
    13:00 +24°C° 0 mm 2 mps 619 mmHg 26%
    14:00 +24°C° 0 mm 2 mps 619 mmHg 25%
    15:00 +25°C° 0 mm 3 mps 619 mmHg 24%
    16:00 +23°C° 0.1 mm 2 mps 619 mmHg 28%
    17:00 +20°C° 0.1 mm 2 mps 618 mmHg 33%
    18:00 +19°C° 0.1 mm 2 mps 618 mmHg 37%
    19:00 +17°C° 0 mm 2 mps 617 mmHg 43%
    20:00 +16°C° 0 mm 1 mps 617 mmHg 49%
    21:00 +15°C° 0 mm 1 mps 617 mmHg 54%
    22:00 +14°C° 0 mm 1 mps 617 mmHg 58%
    23:00 +13°C° 0 mm 1 mps 617 mmHg 62%

    30 September, Sunday

    Time Temperature Precipitation Wind Pressure Humidity
    00:00 +13°C° 0 mm 1 mps 616 mmHg 65%
    01:00 +12°C° 0 mm 1 mps 616 mmHg 68%
    02:00 +12°C° 0 mm 1 mps 616 mmHg 71%
    03:00 +10°C° 0 mm 0 mps 616 mmHg 74%
    04:00 +10°C° 0 mm 0 mps 616 mmHg 77%
    05:00 +9°C° 0 mm 0 mps 616 mmHg 79%
    06:00 +9°C° 0 mm 0 mps 616 mmHg 81%
    07:00 +11°C° 0 mm 0 mps 617 mmHg 70%
    08:00 +14°C° 0 mm 0 mps 618 mmHg 59%
    09:00 +16°C° 0 mm 0 mps 619 mmHg 48%
    10:00 +19°C° 0 mm 1 mps 619 mmHg 42%
    11:00 +21°C° 0 mm 1 mps 620 mmHg 36%
    12:00 +22°C° 0 mm 1 mps 620 mmHg 30%
    13:00 +23°C° 0.1 mm 1 mps 620 mmHg 29%
    14:00 +23°C° 0.1 mm 2 mps 620 mmHg 28%
    15:00 +24°C° 0.1 mm 2 mps 620 mmHg 27%
    16:00 +21°C° 0 mm 2 mps 619 mmHg 31%
    17:00 +20°C° 0 mm 2 mps 619 mmHg 35%
    18:00 +18°C° 0 mm 2 mps 619 mmHg 39%
    19:00 +17°C° 0 mm 2 mps 618 mmHg 44%
    20:00 +16°C° 0 mm 2 mps 618 mmHg 49%
    21:00 +15°C° 0 mm 2 mps 618 mmHg 54%
    22:00 +14°C° 0 mm 1 mps 618 mmHg 58%
    23:00 +13°C° 0 mm 1 mps 618 mmHg 62%
    Show more